Location: Arrodets-la-Barthe
(43.0306°N, 0.2829°E)
Time: 11:20:03
(UTC+00:00)

Feng Yun 1-1 Rocket - Pass Details

Date: 30 May 2022
Orbit: 830 x 933 km, 99.2° (Epoch: 02 July)

Event Time Altitude Azimuth Distance (km) Brightness Sun altitude
Rises 20:01:12 0° 198° (SSW) 3,408 7.2 -5.6°
Reaches altitude 10° 20:04:00 10° 211° (SSW) 2,463 6.6 -6.0°
Maximum altitude 20:08:24 25° 265° (W) 1,641 6.4 -6.6°
Drops below altitude 10° 20:12:47 10° 320° (NW) 2,448 8.3 -7.2°
Sets 20:15:35 0° 334° (NNW) 3,383 8.7 -7.6°
